Fort Worth, TX

10:56 AM CDT on July 28, 2017 (GMT -0500)
Fort Worth Meacham International

Weather History for KFTW - April, 2013

Change the Weather History Date:

Monday, April 1, 2013

  Actual Average Record
Temperature  
Mean Temperature 64 °F -  
Max Temperature 79 °F 69 °F 91 °F (2011)
Min Temperature 50 °F 50 °F 46 °F (2001)
Degree Days  
Heating Degree Days 1    
Growing Degree Days 14 (Base 50)    
Moisture  
Dew Point 50 °F    
Average Humidity 62    
Maximum Humidity 100    
Minimum Humidity 32    
Precipitation  
Precipitation 0.00 in - - ()
Sea Level Pressure  
Sea Level Pressure 29.99 in    
Wind  
Wind Speed 4 mph (East)    
Max Wind Speed 12 mph    
Max Gust Speed 21 mph    
Visibility 10 miles    
Events      
Averages and records for this station are not official NWS values.
T = Trace of Precipitation, MM = Missing Value Source: NWS Daily Summary

Daily Weather History Graph

Daily Weather History Graph

Search for Another Location

Airport or City:

Trip Planner

Search our weather history database for the weather conditions in past years. The results will help you decide how hot, cold, wet, or windy it might be!

Date:

Astronomy

Apr. 01, 2013 Rise Set
Actual Time 7:17 AM CDT 7:49 PM CDT
Civil Twilight 6:52 AM CDT 8:14 PM CDT
Nautical Twilight 6:23 AM CDT 8:43 PM CDT
Astronomical Twilight 5:53 AM CDT 9:13 PM CDT
Moon 12:45 AM CDT (4/1) 11:18 AM CDT (4/1)
Length of Visible Light 13h 22m
Length of Day
12h 32m
Waning Gibbous, 67% of the Moon is Illuminated
Apr 1
Waning Gibbous
Apr 2
Last Quarter
Apr 10
New
Apr 18
First Quarter
Apr 25
Full

Hourly Weather History & Observations

Time (CDT) Temp. Dew Point Humidity Pressure Visibility Wind Dir Wind Speed Gust Speed Precip Events Conditions
12:53 AM 57.0 °F 53.1 °F 87% 29.98 in 10.0 mi WNW 3.5 mph - N/A   Clear
1:53 AM 55.0 °F 51.1 °F 86% 29.99 in 10.0 mi North 3.5 mph - N/A   Clear
2:53 AM 54.0 °F 51.1 °F 90% 30.00 in 10.0 mi NNW 3.5 mph - N/A   Clear
3:53 AM 54.0 °F 50.0 °F 86% 30.00 in 10.0 mi Calm Calm - N/A   Clear
4:53 AM 52.0 °F 51.1 °F 97% 30.00 in 10.0 mi Calm Calm - N/A   Clear
5:53 AM 52.0 °F 52.0 °F 100% 30.00 in 10.0 mi NNE 3.5 mph - N/A   Clear
6:53 AM 51.1 °F 51.1 °F 100% 30.03 in 10.0 mi Calm Calm - N/A   Clear
7:53 AM 50.0 °F 48.9 °F 96% 30.04 in 10.0 mi Calm Calm - N/A   Clear
8:53 AM 59.0 °F 52.0 °F 78% 30.06 in 10.0 mi Calm Calm - N/A   Clear
9:53 AM 63.0 °F 53.1 °F 70% 30.06 in 10.0 mi Calm Calm - N/A   Clear
10:53 AM 66.9 °F 50.0 °F 54% 30.06 in 10.0 mi SSE 9.2 mph - N/A   Clear
11:53 AM 71.1 °F 48.9 °F 45% 30.05 in 10.0 mi SSE 8.1 mph - N/A   Clear
12:53 PM 73.9 °F 48.0 °F 40% 30.05 in 10.0 mi South 8.1 mph - N/A   Clear
1:53 PM 75.0 °F 48.0 °F 38% 30.02 in 10.0 mi SSE 5.8 mph - N/A   Clear
2:53 PM 77.0 °F 46.9 °F 34% 30.00 in 10.0 mi Variable 3.5 mph - N/A   Clear
3:53 PM 77.0 °F 45.0 °F 32% 29.98 in 10.0 mi East 8.1 mph - N/A   Clear
4:53 PM 78.1 °F 46.9 °F 33% 29.95 in 10.0 mi ESE 11.5 mph 17.3 mph N/A   Clear
5:53 PM 77.0 °F 46.0 °F 33% 29.91 in 10.0 mi SE 11.5 mph 20.7 mph N/A   Clear
6:53 PM 75.9 °F 46.9 °F 36% 29.91 in 10.0 mi ESE 11.5 mph - N/A   Clear
7:53 PM 73.0 °F 48.9 °F 42% 29.92 in 10.0 mi ESE 8.1 mph - N/A   Clear
8:53 PM 70.0 °F 50.0 °F 49% 29.93 in 10.0 mi East 6.9 mph - N/A   Clear
9:53 PM 69.1 °F 50.0 °F 51% 29.95 in 10.0 mi East 6.9 mph - N/A   Clear
10:53 PM 68.0 °F 51.1 °F 55% 29.97 in 10.0 mi ENE 8.1 mph - N/A   Clear
11:53 PM 68.0 °F 51.1 °F 55% 29.99 in 10.0 mi NE 8.1 mph - N/A   Scattered Clouds